Location: Góry Miechowskie
(50.3599°N, 20.1803°E)
Time: 00:45:00
(UTC+00:00)

S-56A Canister/Altair - Pass Details

Date: 13 September 2024
Orbit: 636 x 2487 km, 38.9° (Epoch: 15 October)

Event Time Altitude Azimuth Distance (km) Brightness Sun altitude
Rises 16:36:02 0° 196° (SSW) 3,277 11.0 2.5°
Reaches altitude 10° 16:39:29 10° 171° (S) 2,593 10.1 1.9°
Maximum altitude 16:42:37 14° 140° (SE) 2,538 9.8 1.4°
Drops below altitude 10° 16:46:17 10° 110° (ESE) 3,157 10.1 0.8°
Sets 16:51:20 0° 90° (E) 4,567 10.8 0.0°
